Flag for Brazil Weather past 2 weeks in Rio Branco, Acre, Brazil

Now
72 °F

Clear.


Feels Like: 67 °F
Forecast: 68 / 88 °F
Wind: No wind

Location: Rio Branco Airport

Current Time: Jul 4, 2015 at 2:41:49 AM

Latest Report: Jul 4, 2015 at 2:00 AM


Visibility: 10 mi

Pressure: 29.86 "Hg

Humidity: 94%

Dew point: 70 °F

Location of Rio BrancoLocation

Historic Weather in Rio Branco — Graph

°F

Rio Branco temperature yesterday

Maximum temperature yesterday: 90 °F (at 1:00 PM)
Minimum temperature yesterday: 72 °F (at 3:00 AM)
Average temperature yesterday: 79 °F

Past Weeks' High & Low Weather Summary

 TemperatureHumidityPressure
High91 °F (Jun 28, 1:00 PM)100% (Jun 20, 9:00 PM)30.15 "Hg (Jun 20, 9:00 PM)
Low59 °F (Jun 20, 5:00 AM)38% (Jun 27, 1:00 PM)29.80 "Hg (Jul 3, 4:00 PM)
Average76 °F79%29.99 "Hg
* Reported Jun 19 1:00 AM — Jul 4 1:00 AM, Rio Branco, Weather by CustomWeather, © 2015

Note: Actual official high and low records may vary slightly from our data, if they occured in-between our weather recording intervals... More about our weather records

Advertising

Rio Branco weather history for previous 24 hours

 ConditionsComfort  
Time TempWeatherWind HumidityBarometerVisibility
1:00 AM
Sat, Jul 4
73 °FClear.3 mph89%29.86 "Hg10 mi
12:00 AM73 °FClear.2 mph89%29.89 "Hg10 mi
11:00 PM
Fri, Jul 3
72 °FClear.2 mph94%29.89 "Hg10 mi
10:00 PM73 °FClear.2 mph94%29.89 "Hg10 mi
9:00 PM73 °FClear.No wind94%29.89 "Hg10 mi
8:00 PM75 °FClear.No wind89%29.86 "Hg10 mi
7:00 PM77 °FClear.No wind83%29.86 "Hg10 mi
6:00 PM82 °FPassing clouds.5 mph70%29.83 "HgN/A
5:00 PM86 °FPassing clouds.6 mph62%29.80 "HgN/A
4:00 PM88 °FScattered clouds.10 mph55%29.80 "HgN/A
3:00 PM88 °FScattered clouds.9 mph55%29.83 "HgN/A
2:00 PM88 °FScattered clouds.7 mph59%29.83 "HgN/A
1:00 PM90 °FScattered clouds.8 mph55%29.86 "HgN/A
12:00 PM88 °FScattered clouds.8 mph59%29.89 "HgN/A
11:00 AM86 °FScattered clouds.9 mph62%29.92 "HgN/A
10:00 AM86 °FScattered clouds.7 mph66%29.92 "HgN/A
9:00 AM82 °FSunny.8 mph74%29.95 "Hg10 mi
8:00 AM79 °FSunny.5 mph84%29.92 "Hg10 mi
7:00 AM75 °FSunny.1 mph94%29.92 "Hg10 mi
6:00 AM72 °FClear.2 mph94%29.89 "Hg10 mi
5:00 AM72 °FClear.1 mph94%29.89 "Hg10 mi
4:00 AM72 °FClear.No wind94%29.86 "Hg10 mi
3:00 AM72 °FClear.No wind94%29.86 "Hg10 mi
2:00 AM73 °FClear.2 mph94%29.86 "Hg10 mi
Weather by CustomWeather, © 2015

See weather overviewHow to use our weather pages